AirNav   Pilot Hours Calculator
 
 1134 users online  

PA15 Couillard Seaplane Base
Martins Creek, Pennsylvania, USA

GOING TO MARTINS CREEK?


FAA INFORMATION EFFECTIVE 22 APRIL 2021

Location

FAA Identifier: PA15
Lat/Long: 40-46-30.0000N 075-08-29.0000W
40-46.500000N 075-08.483333W
40.7750000,-75.1413889
(estimated)
Elevation: 210 ft. / 64 m (estimated)
Variation: 12W (1990)
From city: 2 miles E of MARTINS CREEK, PA
Time zone: UTC -4 (UTC -5 during Standard Time)
Zip code: 18013

Seaplane Base Operations

Seaplane Base use: Private use. Permission required prior to landing
Activation date: 09/1992
Control tower: no
ARTCC: NEW YORK CENTER
FSS: WILLIAMSPORT FLIGHT SERVICE STATION
Attendance: UNATNDD
Segmented circle: no

Seaplane Base Communications

WX AWOS-3 at N40 (15 nm SE): 121.725
WX ASOS at ABE (15 nm SW): 126.975 (610-264-1765)

Nearby radio navigation aids

VOR radial/distance  VOR name  Freq  Var
FJCr088/14.5ALLENTOWN VORTAC117.5010W
BWZr275/14.6BROADWAY VOR/DME114.2011W
STWr234/18.1STILLWATER VOR/DME109.6011W
SBJr312/21.5SOLBERG VOR/DME112.9010W
ETXr074/27.3EAST TEXAS VOR/DME110.2009W
SAXr248/32.5SPARTA VORTAC115.7011W
ARDr351/33.1YARDLEY VOR/DME108.2010W
PTWr039/38.3POTTSTOWN VORTAC116.5009W
LVZr150/38.8WILKES-BARRE VORTAC111.6010W

 
NDB name  Hdg/Dist  Freq  Var  ID
CHATHAM287/32.425413WCAT -.-. .- -
AMBLER022/39.527512WING .. -. --.

Seaplane Base Services

Runway Information

Runway 10W/28W

Dimensions: 3000 x 200 ft. / 914 x 61 m
Surface: water
RUNWAY 10W  RUNWAY 28W
Traffic pattern: leftleft

Seaplane Base Ownership and Management from official FAA records

Ownership: Privately-owned
Owner: BRUCE R. COUILLARD
4595 FIRST TERRACE
BANGOR, PA 18013
Phone 610-252-4067
Manager: BRUCE R. COUILLARD
4595 FIRST TERRACE
BANGOR, PA 18013
Phone 610-252-4067

Seaplane Base Operational Statistics

Aircraft based on the field: 1
Single engine airplanes: 1
    

Additional Remarks

FOR CD CTC ALLENTOWN APCH AT 800-728-6322.

Instrument Procedures

There are no published instrument procedures at PA15.

Some nearby airports with instrument procedures:

N43 - Braden Airpark (5 nm SW)
N85 - Alexandria Airport (13 nm SE)
1N7 - Blairstown Airport (13 nm NE)
N40 - Sky Manor Airport (15 nm SE)
KABE - Lehigh Valley International Airport (15 nm SW)
N53 - Stroudsburg-Pocono Airport (16 nm N)
 
Loc | Ops | Rwys | IFR | FBO | Links
Com | Nav | Svcs | Stats | Notes
Area around PA15 (Couillard Seaplane Base)
 
Road maps at: MapQuest Bing Google
 
Aerial photo
No photo
 
Sectional chart

 
Airport distance calculator
Flying to Couillard Seaplane Base? Find the distance to fly.

From to PA15

Sunrise and sunset
Times for 13-May-2021
 Local
(UTC-4)
 Zulu
(UTC)
Morning civil twilight05:1509:15
Sunrise05:4609:46
Sunset20:0800:08
Evening civil twilight20:3900:39

Current date and time
Zulu (UTC)  13-May-2021 12:48:40
Local (UTC-4)  13-May-2021 08:48:40
 
METAR
KABE 
16nm SW 
131151Z 21005KT 10SM CLR 10/02 A3026 RMK AO2 SLP247 T01000017 10100 20039 53010 $
KXLL 
20nm SW 
131235Z AUTO 00000KT 10SM CLR 12/01 A3028 RMK AO2
KUKT 
23nm SW 
131235Z AUTO 01006KT 10SM CLR 13/M00 A3027 RMK A01
K12N 
24nm NE 
131154Z AUTO 00000KT 08/05 A3025 RMK AO1 SLP246 T00780050 10078 20017 53010
KSMQ 
24nm SE 
ASOS 120.60 908-722-2139
131153Z AUTO 00000KT 10SM CLR 09/06 A3023 RMK AO2 SLP237 T00940056 10094 20011 53009
KCKZ 
24nm S 
131235Z AUTO 01004KT 10SM CLR 13/00 A3027 RMK AO2
KMPO 
24nm NW 
131153Z AUTO 32010KT 10SM CLR 08/M02 A3024 RMK AO2 SLP246 T00831022 10083 21006 53009 $
KDYL 
27nm S 
131154Z AUTO 01006KT 10SM CLR 12/M02 A3025 RMK AO2 SLP241 T01221017 10122 20050 53010
K22N 
28nm W 
131235Z AUTO 00000KT 10SM CLR 11/05 A3028 RMK AO2
TAF
KABE 
16nm SW 
131120Z 1312/1412 VRB03KT P6SM SKC FM131500 34007KT P6SM SCT080 FM140100 VRB02KT P6SM SKC
NOTAMs
Click for the latest NOTAMs
NOTAMs are issued by the DoD/FAA and will open in a separate window not controlled by AirNav.

 

 
 

Would you like to see your business listed on this page?

 If your business provides an interesting product or service to pilots, flight crews, aircraft, or users of the Couillard Seaplane Base, you should consider listing it here.  To start the listing process, click on the button below
 
Add a business
 

Other Pages about Couillard Seaplane Base

Update a link
 
Copyright © AirNav, LLC. All rights reserved. Privacy Policy  Contact